Temperature
21 19 19 19 20 21 20 20 20 20 21 20 19 18 18 18 18 18 18 18 18 18 18 18 18 18 18 18 18 18 17 17 17 17 17 17 16 16 16 16 16 16 15 15
19 19 20 21 21 21 21 20 20 20 21 20 19 18 18 18 18 18 18 18 18 18 18 18 18 18 18 18 18 17 17 17 17 17 17 16 16 16 16 16 15 15 15 15
19 20 22 22 21 21 21 20 20 20 21 20 19 18 18 18 18 18 18 18 18 18 18 18 18 18 18 18 18 18 17 17 17 16 16 16 16 16 16 16 15 15 15 15
19 21 22 21 21 21 20 21 21 21 19 18 19 17 17 17 17 17 18 18 18 18 18 18 18 18 18 18 18 17 17 17 17 16 16 16 16 16 16 15 15 15 15 15
19 21 21 21 21 22 21 22 21 21 19 18 18 17 17 17 17 17 17 18 18 18 18 18 18 18 18 18 18 17 17 17 17 16 16 16 16 16 16 15 15 15 15 15
20 21 21 22 22 22 22 21 20 18 17 17 18 18 17 16 17 17 18 18 18 18 18 18 18 18 18 18 18 17 17 17 17 16 16 16 16 16 16 15 15 15 15 15
19 20 21 22 21 21 20 18 17 17 16 17 18 18 17 18 18 18 18 18 18 19 18 18 18 18 18 18 18 17 17 17 16 16 16 16 16 16 16 15 15 15 15 15
18 18 20 21 21 20 20 18 17 17 17 17 18 17 17 19 19 20 19 19 19 18 18 18 18 18 18 18 17 17 17 17 16 16 16 16 16 16 16 15 15 15 15 15
18 18 20 21 21 21 20 18 18 17 17 17 17 18 18 19 18 18 18 18 18 18 18 18 18 18 18 17 17 17 17 17 16 16 16 16 16 16 16 16 15 15 15 15
18 18 19 20 21 20 20 18 16 17 17 16 17 17 17 18 18 17 17 17 18 18 18 18 18 18 18 17 17 17 17 17 16 16 16 16 16 16 16 16 15 15 15 15
17 17 18 19 19 19 19 19 17 15 16 16 16 16 18 17 17 17 17 18 18 18 18 18 18 18 18 17 17 17 17 16 16 16 16 16 16 16 15 15 15 15 15 15
17 15 16 18 19 19 19 18 17 16 16 15 15 16 18 17 17 17 17 18 18 18 18 18 18 18 17 17 17 17 16 16 16 16 16 16 16 15 15 15 15 15 15 15
17 15 16 17 17 18 19 19 17 16 15 15 15 16 18 17 17 18 18 18 18 17 17 17 17 17 17 17 17 17 16 16 16 16 16 16 15 15 15 15 15 15 15 14
17 15 15 16 16 17 18 19 18 16 15 15 16 17 17 17 16 17 17 17 17 17 17 17 17 17 17 17 16 16 16 16 16 15 15 15 15 15 15 15 15 15 14 14
15 15 16 16 17 18 18 18 18 17 16 16 16 17 17 17 16 17 17 17 17 17 16 16 17 17 16 16 16 16 16 16 15 15 15 15 15 15 15 15 15 14 14 14
14 15 15 16 17 18 18 18 18 18 18 17 17 17 17 17 17 17 17 16 16 16 16 16 16 16 16 16 16 16 16 15 15 15 15 15 14 14 14 14 14 14 14 14
13 14 14 14 16 17 16 17 17 17 17 17 16 16 16 16 16 16 17 16 16 16 16 16 16 16 16 16 16 15 15 15 15 15 15 14 14 14 14 14 14 14 14 14
14 13 12 13 15 15 16 16 17 17 17 16 16 16 16 16 17 17 17 17 16 16 16 16 16 16 16 15 15 15 15 15 15 14 14 14 14 13 13 14 14 13 13 13
13 13 12 12 13 14 16 16 17 16 16 16 16 16 16 16 16 16 16 16 16 16 16 16 16 16 15 15 15 15 15 14 14 14 14 14 13 13 13 13 13 13 13 13
13 12 12 12 14 14 15 16 17 16 15 15 15 15 15 15 13 14 16 16 16 16 16 16 15 15 15 15 15 15 14 14 14 14 14 14 13 13 13 13 13 13 13 13
13 12 12 12 12 13 14 16 16 15 14 15 16 15 15 14 14 15 15 15 15 15 15 15 15 15 15 14 14 14 14 14 14 14 13 13 13 13 13 13 12 12 12 12
12 12 12 11 12 13 15 15 14 14 15 15 15 15 15 15 15 15 15 15 15 15 15 15 14 14 14 14 14 14 14 14 13 13 13 13 13 13 13 12 12 12 12 12
11 12 11 11 12 13 15 15 15 15 15 15 15 15 15 15 15 15 15 14 14 14 14 14 14 14 13 13 13 13 13 13 13 13 13 12 12 12 12 12 12 11 11 11
11 11 11 11 12 13 14 15 15 15 15 15 15 15 15 14 14 14 14 14 14 14 14 14 13 13 13 13 13 13 13 13 13 13 12 12 12 12 12 12 11 11 11 11
11 11 11 11 12 13 14 14 14 14 14 14 14 14 14 14 14 14 13 13 13 13 13 13 13 13 13 13 13 13 12 12 12 12 12 12 12 11 11 11 11 11 11 11
10 11 10 11 12 12 13 14 14 14 14 14 14 14 14 13 13 13 13 13 13 13 13 12 12 12 12 12 12 12 12 12 12 12 12 12 11 11 11 11 11 11 11 11
Wind_Speed
1 3 2 6 6 6 4 3 3 5 4 4 5 5 7 7 7 7 7 7 7 7 5 4 5 5 5 6 6 6 5 4 4 3 3 3 2 2 2 3 5 6 7 6
3 3 7 5 4 3 3 2 2 2 3 5 4 4 5 7 8 9 9 9 9 7 5 5 5 5 6 6 6 6 6 5 4 3 3 3 3 2 1 2 4 5 6 5
4 6 4 3 2 2 2 3 4 4 1 1 3 2 2 3 5 6 7 8 8 9 8 7 7 7 6 6 7 7 6 5 5 4 3 4 3 3 2 2 1 2 4 5
3 5 2 2 3 3 3 3 3 3 2 2 3 2 5 5 5 7 8 8 8 8 8 7 7 7 8 7 7 7 6 6 5 6 5 5 4 3 3 2 1 1 3 4
3 2 1 2 4 3 4 2 1 1 2 1 1 2 5 3 6 9 9 10 9 9 9 9 8 8 8 7 7 6 6 5 5 6 7 6 4 3 2 2 2 2 2 3
4 4 2 3 2 2 1 4 5 5 3 2 4 4 5 5 9 9 9 10 10 9 9 9 8 7 6 6 6 6 6 5 5 6 6 6 6 5 4 4 3 2 1 1
4 5 3 1 0 2 3 5 4 4 3 4 2 3 5 6 6 9 11 11 10 9 9 8 7 7 7 7 6 7 7 6 5 6 6 6 6 6 7 6 5 4 2 1
1 5 4 2 4 4 3 7 6 3 3 4 2 2 5 4 3 5 7 9 8 9 9 9 9 8 7 7 7 7 7 6 6 6 6 5 6 5 4 6 6 5 4 4
3 5 4 2 2 5 3 3 7 6 2 2 3 2 4 3 3 4 6 8 8 8 8 8 8 7 7 6 6 7 8 6 6 6 5 5 5 5 5 5 5 5 4 4
4 3 4 3 1 1 5 5 5 4 2 2 3 3 4 3 2 3 5 6 7 7 7 6 7 7 6 6 5 5 6 7 6 6 5 4 4 5 5 5 7 6 5 5
4 3 4 3 2 4 2 2 4 3 4 4 3 5 4 7 6 6 6 6 7 7 7 6 6 6 6 5 4 4 4 4 4 5 5 4 3 4 4 5 6 6 6 6
3 4 2 5 5 3 4 5 6 4 3 3 3 5 4 4 6 6 6 5 5 6 6 6 5 5 5 4 4 4 4 4 4 4 5 5 4 4 4 4 5 6 6 5
4 5 1 5 5 3 1 2 4 5 4 3 4 5 3 1 3 4 5 5 5 5 4 4 4 4 5 5 4 4 4 4 3 3 3 4 4 4 4 4 4 5 5 5
4 4 5 7 6 3 3 3 3 5 4 4 6 5 3 2 3 3 5 6 6 5 5 4 3 3 3 4 4 4 4 4 4 3 3 3 4 5 4 4 4 4 5 5
4 2 3 5 5 3 4 5 4 5 7 7 6 6 7 7 6 5 5 6 5 5 5 5 4 3 3 3 3 3 4 3 4 4 4 4 4 4 4 3 3 4 4 5
3 2 1 3 4 4 5 6 6 5 4 6 5 6 6 4 4 3 5 7 6 6 6 5 5 4 3 3 3 3 3 4 4 4 4 3 3 3 4 4 4 4 4 4
1 3 2 3 5 3 5 5 4 3 3 5 7 7 4 3 5 6 7 7 7 7 6 6 6 5 5 5 4 3 3 3 4 4 3 3 4 3 4 4 4 4 4 4
4 3 3 1 1 5 6 3 3 3 2 3 3 4 5 6 5 5 5 7 7 6 6 6 6 5 4 4 4 3 2 3 4 3 3 3 4 4 3 3 4 4 3 3
6 5 3 2 3 6 5 3 1 2 3 2 2 2 2 4 2 2 1 4 6 6 5 5 5 5 4 4 4 3 2 3 3 3 4 4 4 4 3 3 4 3 3 3
4 5 4 3 3 6 6 4 2 2 3 3 1 2 3 4 2 4 3 2 2 3 3 3 3 3 4 4 4 4 4 3 4 5 5 4 5 5 4 4 3 2 3 3
1 1 4 5 5 6 6 5 2 3 6 3 1 2 3 3 5 5 3 3 3 3 3 3 3 3 3 4 4 4 4 5 5 4 4 4 4 5 5 4 2 2 3 3
5 4 5 5 5 7 5 0 3 6 3 2 1 2 3 3 2 2 3 3 2 2 2 3 3 2 2 3 4 4 5 5 4 3 4 4 4 4 3 3 2 2 3 3
4 6 5 6 7 5 2 3 3 3 2 2 2 2 2 2 2 2 2 3 3 3 3 3 4 3 2 3 5 5 5 4 4 3 4 4 4 3 3 4 3 2 3 3
4 1 2 2 4 4 3 2 2 2 2 2 2 2 2 3 3 3 3 3 3 3 3 3 3 3 3 3 4 4 4 3 4 4 3 3 4 3 3 3 3 3 4 4
5 2 1 3 4 3 3 2 2 1 1 0 1 1 2 2 2 4 4 4 4 3 3 3 4 4 5 4 3 3 3 4 3 3 3 3 4 4 4 3 3 4 5 6
5 4 4 6 6 4 5 5 3 1 2 2 1 2 2 3 3 3 4 4 4 4 3 3 4 4 4 4 4 3 4 4 4 3 2 2 3 3 3 3 2 2 3 4
Wind_Direction
328 84 215 225 211 210 200 187 203 217 205 166 184 195 199 188 177 181 183 182 185 192 195 173 156 145 138 137 139 138 127 126 117 113 111 106 101 84 68 77 88 95 95 97
35 262 240 224 230 229 226 183 209 247 205 179 186 212 203 185 188 184 185 189 191 188 178 176 161 153 153 154 152 150 149 145 138 138 139 139 136 125 112 70 78 96 99 98
195 245 246 221 258 247 245 193 202 201 194 140 126 322 246 224 203 192 191 187 187 186 182 181 173 169 163 163 165 164 166 158 152 138 116 96 75 65 59 64 64 77 106 102
241 269 274 254 250 199 249 246 193 169 125 246 168 249 263 218 213 209 201 192 191 191 185 182 178 176 174 176 170 166 166 163 157 143 142 144 144 154 188 180 166 121 106 109
263 264 236 228 232 189 215 237 173 167 152 305 260 188 280 202 216 222 208 200 198 192 186 185 185 183 180 174 168 167 165 164 162 157 158 154 154 169 168 151 142 129 104 110
255 267 231 221 243 205 175 39 34 47 73 300 240 185 270 220 214 210 205 199 196 191 187 187 186 176 173 169 163 159 163 170 166 163 166 164 164 160 155 160 158 157 141 112
316 301 279 224 309 347 84 80 33 2 8 258 252 169 250 247 216 198 194 193 192 184 177 178 176 173 173 172 172 166 168 176 176 172 177 182 177 173 177 179 176 172 169 176
242 288 269 217 183 191 173 141 153 196 232 283 331 216 263 279 204 165 169 169 171 175 176 178 181 179 178 177 176 174 177 182 180 181 187 189 182 179 188 188 179 181 183 188
193 256 286 241 194 150 143 167 170 151 214 266 292 301 323 10 73 112 137 150 164 175 179 180 180 177 175 175 180 183 184 189 188 187 184 185 187 187 191 189 180 180 180 177
164 242 292 293 53 87 153 154 103 127 173 246 286 257 235 232 188 142 144 160 173 173 170 166 170 175 177 177 182 185 186 193 191 183 186 188 188 194 189 177 181 182 180 169
142 166 302 348 197 200 130 124 121 135 162 168 241 270 233 201 187 171 173 170 168 163 163 166 171 176 171 168 172 179 186 187 193 188 182 176 177 182 183 180 184 180 175 169
136 136 242 266 272 213 168 171 148 157 219 175 181 266 288 188 183 171 172 172 162 157 163 164 163 159 158 165 171 177 185 187 202 196 182 179 170 162 171 182 183 176 172 173
118 115 68 335 334 344 202 188 155 144 136 165 179 257 312 113 157 169 165 165 162 156 152 144 144 157 173 179 180 187 188 189 196 181 176 173 163 161 170 178 179 175 170 171
119 121 167 202 229 232 247 250 175 138 166 204 213 227 271 244 183 183 173 167 165 162 154 147 150 168 184 190 189 189 201 196 184 172 172 184 183 178 176 174 173 174 171 170
103 148 219 235 250 245 243 247 227 197 192 193 217 211 228 217 202 193 178 160 153 158 160 168 176 181 185 193 199 200 205 198 180 172 179 195 201 180 167 165 170 171 173 177
96 147 270 289 277 268 267 263 247 234 205 196 205 235 232 213 170 165 174 165 163 172 179 183 179 175 189 194 200 203 206 200 177 177 189 187 172 171 171 168 164 158 171 177
133 138 130 270 291 335 281 255 227 217 205 184 213 231 202 178 175 181 184 177 175 182 186 188 189 191 197 197 192 195 203 187 174 181 188 175 174 174 186 180 161 165 175 173
159 140 151 230 3 235 246 262 183 178 240 224 202 211 195 186 185 192 183 179 182 184 186 193 196 198 204 200 195 187 172 168 174 177 180 177 178 182 177 174 176 179 177 178
169 155 148 158 222 268 290 297 233 194 272 269 204 199 169 142 93 356 244 188 192 191 190 198 199 197 192 193 189 170 172 176 181 194 192 186 179 179 177 181 189 185 176 181
126 133 143 159 199 235 248 268 282 122 266 294 184 175 176 130 150 258 257 197 186 186 183 185 178 167 178 196 178 166 183 188 206 205 200 191 183 180 186 191 191 182 179 186
128 136 179 194 224 256 259 281 54 166 236 259 205 175 164 185 211 228 224 200 184 184 182 170 161 169 195 191 171 177 191 209 217 204 189 186 186 186 186 180 176 177 171 163
188 190 199 185 213 248 266 54 176 218 237 237 213 189 166 197 218 185 190 201 202 201 192 174 165 186 202 185 173 186 210 218 202 185 182 192 197 196 183 169 183 183 169 172
204 203 200 196 218 244 233 203 219 190 196 221 216 229 193 181 210 210 209 212 216 219 211 194 181 195 215 199 181 192 220 212 188 177 193 200 199 193 181 179 189 196 180 183
276 235 170 228 255 259 255 214 221 191 193 222 219 217 212 220 217 211 215 224 228 236 222 208 188 198 228 225 206 205 209 187 172 182 200 199 190 193 192 188 189 195 198 198
252 240 226 252 273 311 305 275 227 204 166 41 315 260 225 195 219 215 217 223 229 233 231 208 203 211 228 224 221 218 197 175 178 187 200 203 194 190 195 197 201 206 216 207
240 209 204 236 240 220 254 266 251 222 240 225 224 300 279 208 213 226 232 233 231 234 231 215 220 226 232 225 224 219 198 182 182 194 207 207 200 195 194 194 226 272 250 235
Height
1520 1525 1529 1525 1523 1524 1526 1529 1532 1529 1523 1527 1531 1532 1531 1531 1532 1533 1533 1535 1536 1537 1539 1540 1542 1543 1544 1545 1546 1547 1548 1549 1549 1550 1551 1552 1552 1553 1553 1553 1554 1554 1553 1553
1525 1527 1520 1518 1519 1521 1524 1529 1531 1526 1521 1526 1530 1531 1529 1529 1530 1530 1531 1532 1534 1536 1537 1539 1540 1542 1543 1544 1545 1546 1547 1548 1549 1550 1550 1551 1552 1552 1553 1553 1554 1554 1554 1554
1527 1522 1516 1517 1520 1522 1524 1527 1528 1528 1524 1524 1530 1535 1532 1530 1529 1529 1530 1530 1532 1534 1535 1537 1539 1540 1542 1543 1544 1545 1546 1547 1548 1549 1550 1551 1551 1552 1552 1553 1553 1553 1553 1554
1522 1517 1516 1518 1520 1520 1527 1519 1520 1523 1531 1537 1533 1548 1535 1529 1528 1527 1528 1528 1530 1531 1533 1535 1537 1538 1540 1541 1543 1544 1545 1546 1547 1548 1549 1549 1550 1551 1551 1552 1553 1553 1553 1553
1522 1517 1517 1519 1517 1516 1520 1515 1518 1522 1529 1537 1535 1543 1538 1529 1530 1526 1524 1525 1526 1528 1531 1533 1535 1536 1538 1540 1541 1543 1544 1545 1546 1547 1548 1548 1549 1550 1551 1551 1552 1552 1553 1553
1518 1514 1515 1514 1513 1513 1514 1518 1522 1529 1536 1547 1537 1542 1540 1530 1523 1520 1521 1522 1523 1526 1528 1530 1533 1535 1536 1538 1540 1541 1542 1544 1544 1545 1546 1547 1548 1549 1549 1550 1551 1551 1552 1552
1523 1516 1513 1512 1515 1515 1517 1532 1547 1549 1554 1550 1533 1537 1535 1518 1514 1514 1515 1518 1521 1524 1526 1528 1530 1532 1534 1536 1538 1539 1541 1542 1543 1544 1545 1546 1547 1547 1548 1549 1550 1550 1551 1551
1532 1531 1515 1512 1514 1519 1520 1529 1549 1557 1557 1548 1534 1537 1527 1513 1511 1511 1513 1516 1519 1522 1524 1526 1528 1530 1532 1534 1536 1537 1539 1540 1541 1542 1544 1544 1545 1546 1547 1548 1549 1549 1549 1550
1531 1529 1513 1510 1510 1513 1521 1528 1528 1541 1543 1547 1542 1532 1522 1514 1513 1513 1514 1516 1518 1520 1522 1524 1527 1529 1531 1532 1534 1535 1537 1538 1539 1541 1542 1543 1543 1544 1545 1546 1547 1548 1548 1549
1522 1527 1516 1511 1510 1511 1515 1520 1533 1540 1549 1554 1544 1537 1533 1521 1518 1516 1515 1516 1517 1519 1521 1523 1525 1527 1529 1531 1533 1534 1535 1536 1537 1539 1540 1541 1542 1542 1543 1544 1545 1546 1547 1547
1518 1527 1523 1517 1517 1519 1519 1522 1528 1537 1541 1550 1552 1543 1517 1517 1515 1515 1515 1516 1517 1518 1520 1522 1524 1526 1528 1530 1531 1532 1534 1535 1536 1537 1538 1539 1540 1541 1541 1542 1543 1544 1545 1546
1518 1526 1531 1522 1514 1511 1514 1518 1526 1539 1541 1541 1546 1540 1512 1513 1513 1514 1515 1516 1517 1518 1519 1521 1523 1524 1526 1528 1529 1530 1532 1533 1534 1535 1536 1537 1538 1538 1539 1540 1540 1542 1543 1544
1517 1527 1537 1533 1526 1517 1516 1515 1519 1527 1536 1541 1546 1536 1513 1513 1513 1514 1515 1516 1517 1518 1519 1520 1522 1523 1525 1526 1527 1528 1530 1531 1532 1533 1533 1534 1535 1536 1536 1537 1539 1540 1541 1542
1514 1524 1532 1536 1530 1521 1519 1516 1516 1524 1536 1537 1534 1527 1517 1514 1514 1515 1515 1515 1516 1517 1518 1519 1520 1522 1523 1524 1525 1526 1528 1528 1529 1530 1531 1531 1532 1533 1534 1535 1536 1537 1538 1539
1514 1523 1522 1521 1517 1515 1515 1514 1514 1518 1522 1528 1524 1521 1516 1513 1512 1513 1513 1514 1515 1516 1517 1518 1519 1520 1521 1522 1523 1524 1525 1526 1527 1528 1528 1529 1530 1531 1531 1533 1534 1534 1536 1536
1516 1522 1522 1521 1515 1514 1514 1512 1511 1512 1513 1516 1517 1517 1510 1510 1510 1512 1512 1513 1513 1514 1516 1517 1517 1518 1519 1520 1521 1521 1522 1523 1524 1525 1525 1526 1527 1528 1528 1530 1530 1531 1532 1534
1519 1522 1526 1528 1519 1516 1520 1513 1510 1510 1509 1511 1515 1512 1508 1509 1509 1509 1510 1511 1511 1512 1514 1514 1515 1516 1517 1518 1518 1519 1520 1521 1521 1522 1522 1523 1524 1524 1525 1526 1527 1528 1529 1530
1518 1522 1528 1529 1525 1530 1517 1506 1505 1507 1507 1506 1505 1505 1505 1505 1507 1507 1508 1509 1509 1510 1511 1512 1513 1514 1515 1516 1516 1517 1518 1518 1518 1519 1519 1520 1521 1521 1522 1523 1524 1524 1526 1527
1512 1519 1527 1531 1530 1523 1512 1505 1505 1507 1508 1505 1504 1504 1504 1505 1506 1507 1507 1507 1508 1508 1509 1510 1511 1511 1512 1513 1513 1514 1514 1515 1515 1516 1516 1517 1517 1518 1519 1519 1520 1521 1522 1523
1511 1514 1524 1529 1528 1527 1513 1503 1501 1504 1510 1504 1503 1503 1503 1503 1509 1507 1506 1506 1506 1507 1507 1508 1508 1508 1509 1510 1510 1511 1511 1512 1512 1513 1513 1514 1514 1515 1515 1516 1517 1518 1519 1520
1516 1519 1522 1525 1525 1518 1506 1501 1501 1514 1511 1503 1501 1501 1502 1502 1504 1504 1503 1504 1504 1504 1505 1505 1505 1505 1506 1507 1507 1507 1508 1508 1509 1510 1510 1511 1512 1512 1513 1513 1514 1515 1516 1517
1515 1518 1520 1522 1524 1518 1501 1501 1504 1505 1501 1501 1500 1500 1500 1500 1500 1501 1501 1501 1501 1501 1502 1502 1502 1503 1504 1504 1504 1504 1505 1505 1506 1506 1507 1508 1508 1509 1510 1510 1511 1512 1512 1513
1510 1510 1510 1511 1511 1502 1499 1499 1499 1499 1500 1500 1499 1499 1499 1498 1498 1498 1499 1499 1499 1499 1499 1499 1499 1499 1500 1501 1501 1501 1501 1502 1502 1503 1503 1504 1505 1506 1506 1507 1507 1508 1509 1510
1505 1503 1505 1505 1502 1499 1498 1497 1497 1497 1497 1497 1497 1497 1496 1496 1496 1496 1496 1496 1496 1496 1496 1496 1496 1496 1496 1497 1497 1497 1498 1498 1499 1499 1500 1501 1502 1502 1503 1504 1505 1505 1505 1506
1503 1502 1503 1502 1499 1497 1496 1495 1495 1495 1495 1495 1495 1494 1494 1493 1493 1493 1493 1493 1494 1493 1493 1493 1493 1492 1492 1493 1493 1494 1494 1495 1495 1496 1496 1497 1498 1499 1499 1500 1501 1501 1502 1502
1499 1500 1501 1500 1496 1496 1495 1494 1494 1493 1493 1492 1492 1491 1491 1491 1490 1490 1490 1490 1490 1490 1489 1489 1489 1488 1488 1489 1489 1489 1490 1491 1491 1492 1492 1493 1494 1495 1496 1496 1497 1497 1498 1499